Regional Weather Roundup
Issued by NWS

Home | Current Version | Previous Version | Graphics & Text | Print | Product List | Glossary On
Versions: 1 2 3 4 5 6 7 8 9 10 11 12 13 14 15 16 17 18 19 20 21 22 23 24 25 26
000
ASUS45 KPSR 271910
RWRAZ

ARIZONA HOURLY REGIONAL WEATHER ROUNDUP
NATIONAL WEATHER SERVICE PHOENIX AZ
1200 PM MST THU JUL 27 2017

NOTE: FAIR INDICATES FEW OR NO CLOUDS BELOW 12,000 FEET WITH NO
SIGNIFICANT WEATHER AND/OR OBSTRUCTIONS TO VISIBILITY.

AZZ001>003-036-272000-
NORTHWEST ARIZONA

CITY           SKY/WX    TMP DP  RH WIND       PRES   REMARKS
BULLHEAD CITY  MOSUNNY  104  54  18 SW5       29.84F HX 102
KINGMAN        SUNNY     95  52  23 NE3       30.07F
$$

AZZ004>008-015-016-018-272000-
NORTH CENTRAL ARIZONA

CITY           SKY/WX    TMP DP  RH WIND       PRES   REMARKS
GRAND CANYON   MOSUNNY   81  52  36 VRB3      30.31F
WILLIAMS       PTSUNNY   79  54  41 CALM      30.32F
PRESCOTT       PTSUNNY   86  59  39 CALM      30.18F
FLAGSTAFF      PTSUNNY   79  51  37 N6        30.33F THUNDER
PAYSON         MOSUNNY   88  57  35 VRB7      30.21F
PAGE           SUNNY     92  54  27 CALM      30.10F
$$

AZZ009>014-017-272000-
NORTHEAST ARIZONA

CITY           SKY/WX    TMP DP  RH WIND       PRES   REMARKS
WINSLOW        SUNNY     93  52  24 MISG      30.14F
SAINT JOHNS    MOSUNNY   88  52  29 MISG      30.20F
WINDOW ROCK    LGT RAIN  78  56  46 SW7       30.30F
SHOW LOW       MOSUNNY   81  48  32 SE3       30.28F
$$

AZZ540-542>544-546-548-272000-
GREATER PHOENIX AREA

CITY           SKY/WX    TMP DP  RH WIND       PRES   REMARKS
PHOENIX        MOSUNNY  105  56  19 W9        29.85F HX 104
BUCKEYE          N/A    102  55  21 S6        29.87F HX 101
GLENDALE       MOSUNNY  104  57  21 SW7       29.88F HX 103
LUKE AFB       MOSUNNY  103  59  23 S10       29.85F HX 104
DEER VALLEY    SUNNY    102  56  21 VRB3      29.87F HX 101
SCOTTSDALE     SUNNY    101  56  22 VRB3      29.90F HX 100
MESA-FALCON    MOSUNNY  100  57  23 W3        29.90F
MESA-GATEWAY   MOSUNNY  100  57  23 W6        29.90F
CHANDLER       SUNNY    102  54  19 NW7       29.88F HX 100
$$

AZZ539-553-272000-
SOUTHWEST MARICOPA COUNTY AND PINAL COUNTY

CITY           SKY/WX    TMP DP  RH WIND       PRES   REMARKS
CASA GRANDE    SUNNY    101  58  24 N10       29.91F HX 100
GILA BEND      FAIR     103  54  19 NW10      29.85F HX 101
$$

AZZ503-504-507>509-272000-
SOUTHEAST ARIZONA

CITY           SKY/WX    TMP DP  RH WIND       PRES   REMARKS
TUCSON         PTSUNNY   95  58  28 NW6       30.02F
DAVIS-MONTHAN  MOSUNNY   97  58  27 N6        30.01F
RYAN FIELD     SUNNY     97  57  26 W9        30.00F
NOGALES        MOSUNNY   89  61  38 W7        30.10F
SIERRA VISTA   PTSUNNY   85  59  41 NE8       30.18F
DOUGLAS        MOSUNNY   89  60  37 VRB6      30.11F
SAFFORD        CLOUDY    89  63  41 SW6       30.02F
$$

AZZ532-272000-
SOUTHWEST ARIZONA

CITY           SKY/WX    TMP DP  RH WIND       PRES   REMARKS
YUMA           MOSUNNY  103  54  19 S6        29.82F HX 101
$$

CAZ041-043-047-048-061-525>527-560>570-272000-
SOUTHERN CALIFORNIA

CITY           SKY/WX    TMP DP  RH WIND       PRES   REMARKS
DOWNTOWN L.A.  SUNNY     82  64  54 CALM      29.94F
L.A. AIRPORT   MOSUNNY   75  65  70 W12       29.95F
SAN DIEGO      MOSUNNY   78  66  66 NW15      29.95F
BURBANK        SUNNY     85  61  44 VRB3      29.94F
ONTARIO        MOSUNNY   89  60  37 W8        29.95F
RIVERSIDE      MOSUNNY   88  63  43 VRB6      29.94F
PALM SPRINGS   SUNNY    108  51  15 VRB3      29.84F HX 105
EL CENTRO NAS  MOSUNNY  106  49  14 VRB6      29.82F HX 103
IMPERIAL       SUNNY    104  60  23 CALM      29.79F HX 105
BLYTHE         MOSUNNY  105  54  18 CALM      29.82F HX 103
NEEDLES        SUNNY    108  49  14 MISG      29.85F HX 104
$$

NVZ020-UTZ003-272000-
SOUTHERN NEVADA-UTAH

CITY           SKY/WX    TMP DP  RH WIND       PRES   REMARKS
LAS VEGAS      MOSUNNY   98  60  28 E5        29.97F
SALT LAKE CITY MOSUNNY   85  59  41 VRB7      30.15F
$$

NMZ009-TXZ055-272000-
NEW MEXICO-WEST TEXAS

CITY           SKY/WX    TMP DP  RH WIND       PRES   REMARKS
ALBUQUERQUE    PTSUNNY   77  57  50 VRB7      30.23F
EL PASO        PTSUNNY   90  62  39 VRB3      30.08F THUNDER
$$


........................KEY........................
SKY/WX - SKY CONDITION/WEATHER
TMP    - TEMPERATURE IN FAHRENHEIT
DP     - DEW POINT IN FAHRENHEIT
RH     - RELATIVE HUMIDITY IN PERCENT
WIND   - DIRECTION AND SPEED IN MILES PER HOUR (MPH)
VRB    - VARIABLE WIND DIRECTION
PRES   - MEAN SEA LEVEL PRESSURE IN INCHES OF MERCURY
         F - FALLING PRESSURE   R - RISING PRESSURE
         S - STEADY PRESSURE
VSB    - VISIBILITY IN MILES
HX     - HEAT INDEX IN FAHRENHEIT
WCI    - WIND CHILL INDEX IN FAHRENHEIT
TC     - TEMPERATURE IN CELSIUS WHICH IS ALSO KNOWN AS
         TEMPERATURE IN CENTIGRADE
AFB    - AIR FORCE BASE
         LUKE AFB IS LUKE AIR FORCE BASE
         DAVIS-MONTHAN IS DAVIS-MONTHAN AIR FORCE BASE
NAS    - NAVAL AIR STATION
         EL CENTRO NAS IS EL CENTRO NAVAL AIR STATION
N/A    - NOT AVAILABLE





USA.gov is the U.S. government's official web portal to all federal, state and local government web resources and services.